Regional Weather Roundup
Issued by NWS

Home | Current Version | Previous Version | Graphics & Text | Print | Product List | Glossary On
Versions: 1 2 3 4 5 6 7 8 9 10 11 12 13 14 15 16 17 18 19 20 21 22 23 24 25 26 27
000
ASUS45 KSLC 180410
RWRUT

UTAH REGIONAL WEATHER ROUNDUP
NATIONAL WEATHER SERVICE SALT LAKE CITY UT
900 PM MST SAT FEB 17 2018

UTZ001>011-023>025-180500-

NORTHERN UTAH

CITY           SKY/WX    TMP DP  RH WIND       PRES   REMARKS
BRIGHAM CITY   CLOUDY    48  18  29 SW9       29.79F
HILL AFB       NOT AVBL
LOGAN          CLOUDY    52  16  24 S7        29.76F
OGDEN          MOCLDY    51  15  23 S18       29.77F
SALT LAKE CITY MOCLDY    55  16  21 S16       29.80F
TOOELE VALLEY  PTCLDY    52  21  30 S21G28    29.80F
WENDOVER       PTCLDY    38  16  40 CALM      29.79F
HEBER CITY       N/A     36  14  41 N5        29.87F WCI  32
WEST JORDAN    PTCLDY    49  20  32 S20       29.82F

$$

UTZ011>015-024>027-180500-

CENTRAL/NORTHEAST UTAH

CITY           SKY/WX    TMP DP  RH WIND       PRES   REMARKS
PROVO AIRPORT  MOCLDY    37  24  59 S7        29.89F WCI  32
MOAB/CANYONLAN CLEAR     35  26  69 CALM      29.99F
DELTA          CLEAR     46  18  31 S22       29.91S
PRICE          CLEAR     30  14  51 NE5       30.00F WCI  25
RICHFIELD      CLEAR     50  14  23 SW14      29.94F
ROOSEVELT      CLEAR     36  10  35 CALM      29.95F
VERNAL         PTCLDY    33  11  39 W6        29.93F WCI  28

$$

UTZ013>016-019>022-027-180500-

SOUTHERN UTAH

CITY           SKY/WX    TMP DP  RH WIND       PRES   REMARKS
BRYCE CANYON   CLEAR     25  20  81 SW5       30.10F WCI  19
CEDAR CITY     CLEAR     38  19  46 S6        30.03F WCI  33
MILFORD        CLEAR     45  19  35 S24       29.98S
ST GEORGE      MOCLDY    47  34  60 SW3       30.05
HANKSVILLE     CLEAR     37  18  44 N7        30.01F WCI  32
KANAB          CLEAR     34  28  80 N3        30.12F
BLANDING         N/A     31  14  48 NE6       30.17F WCI  26

$$

REGIONAL REPORTS     COLORADO/ARIZONA

CITY           SKY/WX    TMP DP  RH WIND       PRES   REMARKS
CRAIG, CO      PTCLDY    39  16  39 W12       29.93F WCI  32
GRAND JUNCTION CLEAR     31  24  75 E5        30.02F WCI  26
RIFLE, CO      CLEAR     31  19  61 CALM      30.02F
MONTROSE, CO   CLEAR     30  21  69 S5        30.08S WCI  25
CORTEZ, CO     CLEAR     27  16  63 E7        30.13F WCI  19
COLORADO CITY    N/A     32  30  93 SE3       30.11F
PAGE, AZ       CLEAR     45  23  42 W5        30.05F
GRAND CANYON   PTCLDY    27  22  81 CALM      30.14F
KINGMAN, AZ    PTCLDY    49  27  42 SE9       30.08F
FLAGSTAFF, AZ  PTCLDY    30  23  75 CALM      30.16F

$$

REGIONAL REPORTS    NEVADA/IDAHO/WYOMING

CITY           SKY/WX    TMP DP  RH WIND       PRES   REMARKS
LAS VEGAS, NV  PTCLDY    57  20  23 CALM      30.01F
ELY, NY        PTCLDY    38  12  34 S18       29.94F WCI  28
ELKO, NV       MOCLDY    41  19  41 SW6       29.83F
POCATELLO, ID  CLOUDY    47  23  38 S20G29    29.65F
BURLEY, ID     CLOUDY    50  23  34 SW21      29.66F
FORT BRIDGER,    N/A     40  10  29 SW20G30   29.82F WCI  30
EVANSTON, WY   PTCLDY    37  12  35 SW18      29.81F WCI  27
ROCK SPRINGS,  MOCLDY    39   9  29 SW14      29.80F WCI  31

$$




USA.gov is the U.S. government's official web portal to all federal, state and local government web resources and services.